Temperature
28 29 30 30 30 31 30 30 30 30 29 29 29 29 29 28 27 26 26 25 24 24 23 23 22 22 21 20 20 19 19 19 18 18 18 18 18 18 18 17 17 17 17 17
27 29 29 29 30 30 30 30 30 30 29 30 30 29 28 27 27 26 25 24 24 23 22 22 21 21 20 20 19 19 19 18 18 18 18 18 18 18 17 17 17 17 17 17
26 27 28 27 29 30 30 30 30 29 29 29 29 28 27 27 26 25 24 24 23 22 22 21 21 20 20 19 19 19 18 18 18 18 18 18 17 17 17 17 17 17 17 16
25 25 24 27 30 30 30 30 30 29 29 29 28 27 26 26 25 25 24 23 22 22 21 21 20 20 19 19 19 18 18 18 17 17 17 17 17 17 17 17 16 16 16 16
24 24 25 27 29 29 29 29 30 29 28 28 27 26 25 25 24 23 23 22 21 21 21 20 20 19 19 19 18 18 17 17 17 17 17 17 16 16 16 16 16 16 16 16
23 23 24 26 28 28 28 27 28 28 27 27 27 26 25 24 23 22 22 21 21 20 20 20 19 19 18 18 18 17 17 17 17 17 16 16 16 16 16 16 16 16 15 15
23 23 24 26 27 27 25 25 26 26 26 26 25 25 23 22 22 21 20 20 20 19 19 19 18 18 18 17 17 17 17 16 16 16 16 16 16 16 16 15 15 15 15 15
23 23 23 25 25 24 24 24 24 24 24 24 23 23 22 21 21 20 20 19 19 19 18 18 18 17 17 16 16 16 16 16 16 16 15 15 15 15 15 15 15 15 14 14
23 23 23 23 23 23 23 23 23 23 22 22 22 22 21 20 20 19 19 19 18 18 17 17 17 16 16 16 16 15 15 15 15 15 15 15 15 15 15 14 14 14 14 14
22 22 23 22 22 22 22 22 22 22 21 21 21 21 20 20 19 18 18 18 17 17 16 16 16 16 15 15 15 15 15 15 15 15 14 14 14 14 14 14 14 14 14 14
20 21 21 21 21 21 21 21 21 21 21 20 20 20 19 18 18 18 17 17 16 16 16 15 15 15 15 15 14 14 14 14 14 14 14 14 14 14 14 14 14 14 13 13
19 20 20 20 20 19 20 20 20 20 19 19 19 19 18 18 17 17 16 16 16 15 15 15 14 14 14 14 14 14 14 14 14 13 13 13 13 13 13 13 13 13 13 13
19 19 18 18 18 18 18 19 19 19 19 18 18 18 17 17 16 16 15 15 15 15 14 14 14 13 13 13 13 13 13 13 13 13 13 13 13 13 13 13 13 13 13 13
18 18 18 18 18 18 18 18 18 18 18 17 17 17 16 16 15 15 15 14 14 14 14 14 13 13 13 13 13 13 13 13 13 13 13 13 13 13 13 13 13 13 13 12
17 17 17 17 17 17 17 17 17 17 17 16 16 16 15 15 15 14 14 14 14 14 13 13 13 12 12 13 13 13 13 13 12 12 12 12 12 13 13 12 12 12 12 12
17 17 17 17 17 16 17 17 16 16 16 16 15 15 15 14 14 14 13 13 13 13 13 12 12 12 12 12 12 12 12 12 12 12 12 12 12 13 12 12 12 12 12 12
17 17 16 16 16 16 16 16 16 15 15 15 15 14 14 14 13 13 13 13 13 13 12 12 12 12 12 12 12 12 12 12 12 12 12 12 12 12 12 12 12 12 12 11
16 16 16 16 15 15 15 15 15 15 14 14 14 14 13 13 13 13 13 12 12 12 12 11 11 11 11 12 12 12 12 12 12 12 12 12 12 12 12 12 12 11 11 11
16 16 15 15 15 15 15 15 14 14 14 14 14 13 13 13 13 12 12 12 12 11 11 11 11 11 11 11 11 11 11 11 11 11 11 11 11 11 11 12 11 11 11 11
15 15 15 15 15 15 14 14 14 14 14 13 13 13 12 12 12 12 12 12 12 11 11 11 11 11 11 11 11 12 12 11 11 11 11 11 11 11 11 11 11 11 10 10
14 14 14 14 14 14 14 14 14 13 13 13 13 12 12 12 12 12 12 12 11 11 11 11 11 11 11 11 11 11 12 11 11 11 11 11 11 11 11 10 10 10 10 10
14 14 14 14 14 14 13 13 13 13 13 13 12 12 12 12 12 12 12 12 11 11 11 11 11 11 12 11 11 11 11 11 11 11 11 11 11 11 10 10 10 10 9 9
14 14 14 13 13 13 13 13 13 13 12 12 12 12 12 12 12 12 12 12 12 12 11 11 11 11 11 11 11 11 11 11 11 11 11 11 11 11 10 10 10 10 9 9
13 13 13 13 13 13 12 13 13 13 12 12 12 12 12 12 12 12 12 12 12 12 11 11 11 11 11 11 11 11 11 11 11 11 11 11 11 10 10 10 10 9 9 9
12 13 13 13 12 12 12 12 12 12 12 12 12 12 12 12 12 12 12 12 12 11 11 11 11 11 11 11 11 11 11 11 11 11 10 10 10 10 10 10 9 9 8 8
12 12 12 12 12 12 12 12 12 12 12 12 12 12 12 12 12 12 12 11 11 11 11 11 11 11 11 11 11 11 11 11 11 10 10 10 10 10 9 9 8 8 8 8
12 12 12 12 12 13 12 12 12 12 12 12 12 12 12 12 12 11 11 11 11 11 11 11 11 11 11 11 11 10 10 10 10 10 10 9 9 9 8 8 8 8 7 7
Wind_Speed
19 19 17 17 16 16 17 17 16 12 10 8 7 6 6 7 6 7 6 5 5 5 5 5 5 5 5 6 6 6 6 6 6 6 5 5 5 5 5 4 5 4 3 3
18 19 19 20 20 18 17 16 16 14 12 8 5 4 5 5 6 6 5 5 5 5 5 5 5 5 5 5 6 6 6 6 6 5 5 5 5 5 5 4 4 4 4 4
16 17 18 21 21 19 16 16 15 14 9 5 4 4 5 5 5 5 5 4 4 4 4 4 5 5 6 5 5 6 5 5 5 5 5 4 5 5 5 5 4 4 4 4
14 15 19 16 15 15 14 13 10 6 6 6 4 5 4 4 4 4 4 4 4 3 3 4 4 5 5 5 5 5 5 4 4 4 4 4 4 4 4 4 4 4 4 4
12 17 18 16 13 12 12 11 8 6 6 5 4 4 4 4 5 4 4 4 3 2 2 3 4 4 4 5 6 6 5 5 4 4 4 4 4 4 4 3 4 4 4 4
13 15 16 11 8 8 10 10 5 4 3 4 5 6 4 5 5 5 5 3 2 2 2 3 4 4 4 5 4 4 4 4 4 4 4 4 4 3 3 3 3 3 3 3
17 17 13 7 6 6 9 6 1 2 2 3 2 1 5 6 6 5 5 4 3 2 2 3 4 3 3 3 3 3 3 3 3 3 3 3 3 3 3 3 2 2 2 1
15 16 12 4 5 5 3 4 4 4 4 4 5 6 6 5 5 5 5 4 3 3 3 3 3 3 3 2 2 2 2 2 2 2 2 2 2 2 2 3 3 3 2 2
8 6 1 3 2 2 2 3 3 3 3 3 4 4 4 3 4 4 4 4 4 4 4 3 3 3 3 2 2 2 2 2 2 2 2 2 2 2 2 2 3 3 2 3
6 4 2 2 2 2 2 3 2 2 1 2 2 2 3 3 3 3 3 4 4 4 4 3 3 3 3 2 2 2 2 2 2 2 2 3 2 1 1 1 1 1 1 1
8 6 5 4 3 3 3 3 3 2 1 1 1 2 2 2 3 3 4 4 3 4 4 4 4 3 3 3 3 2 2 2 2 2 3 2 1 0 1 1 1 0 1 1
8 5 5 5 4 5 5 5 3 1 2 1 0 2 1 2 2 3 4 3 3 3 3 4 4 3 4 4 3 2 2 2 2 2 2 2 2 1 3 2 4 3 2 1
6 6 6 6 5 5 5 5 3 2 1 1 1 1 2 2 2 3 3 3 3 2 4 4 4 3 3 3 3 2 2 1 1 1 2 2 2 2 2 1 1 1 1 2
5 4 5 6 6 5 4 4 3 2 2 1 1 3 2 2 3 3 2 2 3 3 4 5 5 4 3 3 2 1 1 2 1 1 2 2 2 3 2 2 1 0 1 3
6 6 7 6 5 5 4 4 3 3 2 2 4 4 3 3 3 2 2 2 3 3 4 5 4 3 2 2 2 1 1 1 0 1 1 2 2 2 2 2 2 2 2 1
6 5 5 5 5 5 5 5 4 4 3 3 4 4 4 4 4 3 3 3 3 3 4 5 4 3 2 2 2 1 1 1 1 1 1 1 2 2 1 1 1 2 2 2
5 5 4 4 4 4 4 3 3 3 3 4 5 5 5 5 5 4 3 3 3 3 4 4 4 3 3 2 1 1 1 1 0 1 0 0 1 0 0 0 1 2 2 3
4 4 4 4 4 4 3 2 2 2 2 3 4 5 5 5 5 5 4 4 4 4 4 4 4 3 3 3 1 1 1 1 0 1 1 1 1 1 1 1 2 2 1 3
3 2 3 3 4 4 3 3 3 4 5 4 4 5 5 5 5 4 4 4 4 4 3 3 4 3 3 2 1 2 2 2 1 1 1 1 0 1 1 1 2 1 1 1
1 1 1 2 3 3 4 4 4 5 5 5 5 5 4 3 3 4 4 3 3 3 4 5 4 3 2 2 1 2 2 1 1 1 0 1 1 1 2 2 2 2 1 1
1 2 3 3 3 3 3 3 4 5 5 6 5 5 5 4 3 3 3 4 4 4 4 5 4 2 1 1 3 2 1 1 1 1 0 1 0 1 1 1 1 2 2 2
2 3 4 5 5 4 3 4 3 4 4 4 5 5 5 4 4 3 3 3 4 4 4 4 3 1 0 2 2 2 1 1 0 0 1 0 0 1 1 2 1 1 1 1
2 4 5 5 5 4 3 3 3 3 4 4 4 4 4 3 3 3 4 4 4 4 3 3 3 2 1 1 1 1 0 0 0 0 0 0 0 1 1 1 1 1 1 1
4 4 4 4 5 4 3 3 3 3 4 4 4 4 4 3 3 2 3 6 6 5 3 4 5 3 1 1 1 1 0 1 1 1 1 1 1 1 2 2 2 2 2 2
3 4 4 4 4 3 3 3 3 3 4 3 4 4 3 3 3 3 4 6 7 5 3 4 6 4 2 2 1 1 1 1 1 2 1 2 2 2 2 2 3 3 3 3
3 2 3 3 3 2 3 2 2 3 4 4 3 3 3 3 4 4 3 4 5 4 2 2 3 3 2 2 1 0 1 1 2 2 3 3 4 4 3 3 3 3 3 3
3 3 3 3 2 2 3 3 3 3 4 4 4 3 3 4 4 4 4 3 3 2 1 1 2 1 1 0 1 1 2 2 3 3 4 4 4 4 4 4 4 3 3 3
Wind_Direction
262 268 267 266 262 249 243 251 261 261 244 236 212 182 153 146 138 134 134 135 126 129 128 135 142 151 157 166 167 174 176 183 185 186 183 182 182 182 186 191 200 199 205 214
262 261 266 266 263 259 250 252 258 258 253 246 189 152 145 151 149 146 144 140 134 133 143 150 156 161 161 167 170 173 179 185 179 182 187 188 188 185 186 192 200 199 207 218
266 265 266 258 257 260 255 252 255 257 248 218 191 166 158 155 156 149 151 150 144 139 151 157 162 167 168 165 167 171 175 176 173 179 188 193 198 193 195 197 202 208 215 221
264 267 255 260 262 262 259 258 253 248 234 226 202 149 134 145 155 159 154 147 135 136 149 168 168 165 161 164 165 168 168 170 173 180 190 191 196 198 201 201 205 212 219 219
257 256 256 261 264 263 258 256 259 232 215 210 176 154 153 143 134 136 118 110 117 145 167 164 158 156 164 176 172 175 178 179 184 187 189 193 198 202 205 206 213 220 218 213
248 254 256 262 267 287 278 252 258 237 200 197 206 210 180 138 131 117 107 104 102 132 144 142 142 154 170 177 172 176 177 180 186 191 195 199 197 198 207 214 222 227 224 213
242 251 256 278 295 283 257 256 282 206 192 194 237 97 108 109 108 103 104 102 95 105 110 113 126 140 154 154 165 167 162 170 174 174 188 187 180 187 199 212 218 217 223 217
239 246 250 299 274 276 321 22 53 59 73 86 84 92 94 93 99 106 105 98 96 97 93 102 115 127 133 139 138 130 132 140 142 151 187 175 156 181 203 210 205 203 202 212
245 245 297 8 11 8 349 34 53 70 84 92 104 109 105 100 100 105 109 104 103 99 93 100 106 120 137 117 100 105 117 129 143 158 161 159 168 179 201 206 216 217 209 219
277 252 277 322 304 303 343 7 15 31 70 78 102 108 120 118 123 124 108 113 108 109 111 108 100 106 109 107 115 122 143 154 162 171 171 150 155 184 186 208 195 229 249 242
271 268 283 286 310 327 328 327 334 341 4 58 97 113 114 123 130 127 107 98 99 109 111 108 97 94 101 105 108 127 150 162 176 176 152 132 135 120 132 75 77 204 289 290
265 282 289 294 312 322 323 316 314 331 333 329 303 146 137 118 117 110 102 100 103 113 119 108 96 85 84 91 100 121 145 153 168 169 145 145 134 82 60 113 119 120 152 173
266 268 267 283 292 301 296 291 306 313 314 318 299 123 117 108 113 102 102 108 113 118 119 114 105 92 89 94 96 107 129 153 187 176 167 169 174 175 161 136 118 126 203 198
282 268 263 268 273 278 273 275 271 265 255 232 168 128 124 108 100 100 114 125 121 116 122 121 113 104 94 92 100 114 154 151 193 193 190 201 209 213 204 196 177 151 216 213
275 266 256 257 254 248 245 247 240 230 203 189 167 151 148 137 126 118 113 116 117 116 118 116 110 104 92 103 114 119 135 136 164 223 218 219 231 223 215 209 200 167 153 164
278 259 250 240 237 240 240 232 225 219 216 193 167 160 155 144 140 129 116 115 124 124 118 116 114 112 113 107 107 120 129 138 223 235 212 220 235 221 211 194 157 134 108 83
264 255 243 233 227 228 231 228 219 217 220 188 166 157 151 145 140 136 138 133 120 117 119 124 128 132 136 128 124 138 127 121 256 278 232 28 339 320 329 13 51 73 91 94
249 248 234 221 227 231 222 194 190 193 196 161 145 146 147 147 148 142 139 130 119 113 115 124 132 142 139 135 145 165 132 125 211 15 38 15 2 12 17 59 78 85 99 116
232 230 225 213 211 204 199 184 171 166 156 150 147 146 147 148 144 144 145 142 140 138 138 133 133 140 133 127 158 197 187 180 144 112 90 100 103 12 12 56 73 75 69 75
171 166 192 190 189 178 175 175 166 155 149 143 144 142 143 144 144 150 154 151 149 147 141 138 151 166 174 161 249 237 207 177 145 131 43 70 70 36 32 42 49 52 47 48
158 158 148 143 139 133 140 148 142 144 149 156 155 151 148 150 154 157 156 147 136 133 142 149 163 180 194 236 238 224 204 166 151 144 87 58 45 37 25 24 38 41 39 34
157 147 136 134 123 117 111 114 130 141 156 158 157 150 148 154 158 154 148 137 143 149 170 160 148 132 324 273 222 217 188 105 80 115 109 95 29 6 13 10 9 25 32 26
127 125 125 127 128 129 131 141 150 152 154 155 157 155 156 154 152 148 149 146 150 155 166 134 126 124 21 254 227 212 141 121 284 295 65 49 327 335 328 324 335 353 23 30
95 100 108 121 130 130 138 144 133 131 138 146 149 145 146 145 141 144 132 131 130 140 153 135 144 151 200 247 268 266 309 347 340 347 357 334 331 338 337 346 358 13 24 21
106 109 108 112 128 138 149 148 133 138 145 138 138 143 156 151 147 135 122 130 137 147 151 153 170 183 208 262 285 338 24 20 358 345 345 345 356 7 19 23 21 26 20 18
122 126 123 135 137 146 152 146 145 142 139 132 132 126 116 119 125 126 124 125 129 143 155 147 161 180 208 229 242 342 39 66 57 40 26 24 27 31 29 24 23 25 27 26
135 123 122 129 128 140 141 137 141 141 138 135 131 123 122 121 121 126 125 125 131 141 152 137 138 148 192 162 98 78 65 54 49 47 48 44 38 36 35 35 34 30 25 23
Height
1443 1436 1434 1435 1435 1432 1437 1439 1445 1443 1444 1441 1439 1442 1446 1450 1454 1458 1462 1465 1468 1470 1473 1476 1478 1480 1482 1484 1487 1489 1491 1493 1495 1497 1499 1501 1502 1503 1505 1506 1507 1508 1508 1509
1445 1437 1434 1434 1431 1431 1431 1431 1434 1437 1438 1434 1436 1440 1446 1450 1454 1458 1461 1464 1467 1470 1472 1475 1477 1478 1480 1482 1484 1486 1489 1491 1493 1494 1496 1498 1499 1500 1501 1502 1503 1504 1505 1506
1451 1440 1438 1441 1430 1428 1427 1425 1430 1436 1435 1433 1436 1441 1445 1450 1454 1458 1461 1464 1467 1469 1471 1473 1475 1477 1478 1480 1482 1484 1487 1489 1490 1492 1493 1494 1496 1497 1498 1499 1500 1501 1501 1502
1452 1451 1460 1436 1420 1421 1422 1423 1424 1428 1431 1433 1437 1441 1446 1450 1454 1457 1460 1463 1465 1468 1470 1472 1474 1475 1477 1479 1481 1482 1484 1486 1488 1489 1490 1491 1493 1494 1495 1496 1496 1497 1498 1499
1453 1454 1446 1431 1423 1421 1424 1425 1423 1426 1430 1434 1437 1442 1447 1450 1453 1456 1459 1462 1464 1466 1468 1470 1472 1473 1475 1477 1479 1480 1482 1483 1485 1486 1487 1488 1489 1490 1492 1492 1493 1494 1495 1495
1452 1456 1453 1434 1422 1423 1426 1431 1426 1427 1430 1434 1437 1443 1447 1449 1452 1455 1457 1461 1462 1464 1466 1468 1469 1471 1473 1474 1476 1477 1478 1480 1482 1483 1484 1485 1486 1488 1489 1490 1490 1491 1491 1492
1448 1448 1440 1429 1426 1427 1440 1436 1429 1429 1432 1435 1438 1441 1446 1448 1451 1454 1456 1459 1460 1462 1464 1465 1467 1468 1470 1472 1473 1474 1476 1477 1479 1480 1481 1483 1484 1485 1486 1486 1487 1488 1488 1488
1442 1447 1445 1430 1429 1433 1435 1432 1432 1433 1434 1437 1440 1442 1445 1448 1451 1453 1456 1457 1459 1460 1461 1463 1464 1466 1467 1469 1470 1472 1473 1474 1476 1477 1479 1480 1481 1481 1482 1483 1484 1484 1484 1485
1434 1438 1434 1433 1433 1434 1434 1433 1435 1436 1437 1439 1441 1444 1446 1449 1451 1453 1455 1456 1458 1459 1460 1462 1463 1464 1465 1466 1468 1469 1470 1472 1473 1475 1476 1477 1478 1479 1480 1481 1481 1482 1482 1482
1433 1432 1433 1434 1435 1436 1436 1436 1436 1438 1438 1440 1441 1444 1447 1449 1451 1453 1454 1456 1457 1459 1460 1461 1462 1463 1464 1465 1465 1466 1468 1469 1471 1472 1473 1474 1475 1477 1478 1478 1479 1479 1479 1479
1435 1434 1434 1434 1435 1436 1436 1436 1437 1438 1439 1441 1442 1444 1447 1449 1450 1451 1453 1455 1457 1458 1459 1460 1461 1462 1462 1463 1463 1464 1465 1466 1468 1469 1470 1471 1473 1474 1475 1476 1476 1477 1477 1477
1436 1435 1436 1436 1436 1436 1436 1436 1436 1437 1439 1441 1443 1444 1446 1448 1449 1450 1452 1454 1456 1457 1458 1459 1460 1461 1461 1461 1461 1462 1463 1464 1466 1468 1468 1469 1471 1472 1473 1474 1475 1475 1476 1476
1434 1435 1436 1436 1436 1436 1436 1437 1437 1438 1440 1441 1443 1444 1446 1448 1449 1450 1451 1454 1455 1456 1457 1458 1459 1460 1460 1460 1461 1461 1462 1463 1464 1465 1466 1467 1469 1470 1471 1472 1472 1473 1473 1473
1432 1432 1433 1434 1434 1435 1436 1436 1437 1438 1440 1442 1443 1444 1446 1447 1449 1450 1451 1453 1454 1455 1456 1457 1458 1459 1459 1459 1460 1461 1462 1463 1464 1465 1466 1467 1468 1469 1470 1470 1470 1470 1471 1471
1429 1430 1431 1432 1432 1434 1435 1436 1436 1437 1439 1441 1442 1444 1446 1447 1449 1450 1451 1452 1453 1454 1455 1456 1457 1458 1458 1459 1460 1461 1462 1463 1464 1465 1466 1467 1467 1467 1468 1468 1468 1468 1469 1469
1427 1428 1429 1430 1431 1432 1433 1434 1435 1437 1438 1439 1440 1443 1445 1446 1448 1450 1451 1452 1453 1453 1454 1455 1456 1457 1458 1459 1460 1460 1461 1462 1463 1464 1465 1466 1466 1466 1467 1467 1467 1467 1467 1467
1426 1426 1427 1428 1429 1431 1432 1433 1435 1436 1437 1438 1439 1442 1444 1445 1447 1449 1450 1451 1452 1453 1454 1455 1456 1457 1458 1459 1460 1461 1461 1462 1463 1464 1465 1465 1465 1465 1466 1466 1466 1466 1466 1466
1425 1425 1426 1427 1429 1430 1431 1433 1434 1435 1436 1437 1439 1442 1443 1445 1446 1448 1449 1450 1452 1453 1454 1455 1456 1457 1458 1459 1460 1461 1462 1462 1463 1463 1463 1463 1464 1464 1464 1464 1464 1465 1465 1464
1424 1425 1426 1427 1428 1429 1431 1432 1433 1434 1436 1437 1440 1442 1443 1445 1446 1447 1448 1450 1451 1452 1454 1455 1455 1457 1458 1459 1460 1461 1461 1462 1462 1463 1463 1463 1463 1463 1463 1463 1463 1464 1464 1463
1423 1424 1425 1426 1427 1428 1429 1431 1433 1434 1436 1438 1440 1442 1443 1444 1446 1447 1448 1449 1451 1452 1453 1454 1456 1457 1458 1459 1459 1460 1461 1462 1462 1462 1462 1462 1463 1463 1462 1462 1462 1462 1462 1462
1423 1424 1424 1425 1427 1428 1429 1430 1433 1435 1437 1439 1440 1441 1442 1444 1446 1447 1448 1449 1451 1452 1453 1454 1455 1457 1457 1458 1458 1459 1460 1461 1462 1462 1462 1462 1462 1462 1462 1462 1461 1461 1461 1460
1423 1424 1425 1426 1427 1429 1430 1431 1433 1435 1436 1438 1440 1441 1443 1444 1446 1447 1448 1449 1451 1452 1453 1455 1455 1456 1457 1457 1458 1459 1460 1460 1461 1461 1461 1462 1462 1461 1461 1461 1460 1460 1460 1459
1424 1424 1426 1427 1428 1430 1431 1432 1434 1435 1437 1438 1440 1441 1443 1445 1446 1447 1448 1450 1451 1452 1453 1454 1455 1456 1457 1457 1458 1458 1459 1460 1460 1460 1461 1461 1461 1461 1460 1460 1459 1459 1458 1458
1425 1426 1427 1428 1429 1431 1432 1433 1434 1436 1437 1438 1440 1441 1443 1445 1446 1448 1449 1450 1451 1452 1453 1454 1455 1456 1457 1457 1458 1458 1459 1459 1459 1459 1460 1459 1459 1459 1459 1458 1458 1457 1457 1456
1426 1427 1428 1429 1430 1432 1433 1434 1435 1436 1437 1439 1440 1442 1444 1445 1446 1448 1449 1450 1451 1452 1453 1454 1455 1456 1456 1457 1457 1458 1458 1458 1458 1458 1458 1458 1458 1458 1457 1456 1456 1455 1455 1454
1427 1428 1429 1430 1431 1432 1433 1434 1435 1436 1438 1439 1441 1442 1443 1445 1446 1448 1449 1450 1451 1452 1453 1454 1454 1455 1456 1456 1456 1457 1457 1457 1457 1457 1457 1456 1456 1456 1455 1455 1454 1454 1453 1452
1429 1429 1430 1431 1432 1433 1434 1435 1436 1437 1438 1440 1441 1442 1444 1445 1446 1448 1449 1450 1451 1452 1453 1454 1454 1455 1455 1455 1456 1456 1456 1456 1456 1456 1455 1455 1454 1454 1453 1453 1452 1451 1451 1450